SCP
0 0 0 0 0 0 0 0 0 0 0 0 0 0 0 0 0 0 0 0 0 0 0 0 0 0 0 0 0 0 0 0
0 0 0 0 0 0 0 0 0 0 0 0 0 0 0 0 0 0 0 0 0 0 0 0 0 0 0 0 0 0 0 0
0 0 0 0 0 0 0 0 0 0 0 0 0 0 0 0 0 0 0 0 0 0 0 0 0 0 0 0 0 0 0 0
0 0 0 0 0 0 0 0 0 0 0 0 0 0 0 0 0 0 0 0 0 0 0 0 0 0 0 0 0 0 0 0
0 -0 0 0 0 0 0 0 0 0 0 0 0 0 0 0 0 0 0 0 0 0 0 0 0 0 0 0 0 0 0 0
0 0 0 0 0 0 0 0 0 0 0 0 0 0 0 0 0 0 0 0 0 0 0 0 0 0 0 0 0 0 0 0
0 0 0 0 0 0 0 0 0 0 0 0 0 0 0 0 0 0 0 0 0 0 0 0 0 0 0 0 0 0 0 0
0 0 0 0 0 0 0 0 0 0 0 0 0 0 0 0 0 0 0 0 0 0 0 0 0 0 0 0 0 0 0 0
0 0 0 0 0 0 0 0 0 0 0 0 0 0 0 0 0 0 0 0 0 0 0 0 0 0 -0 0 0 0 0 0
0 0 0 0 0 0 0 0 0 0 0 0 0 0 0 0 0 0 0 0 0 0 0 0 0 -0 0 0 0 0 0 0
0 0 0 0 0 0 0 0 0 0 0 0 0 0 0 0 0 0 0 0 0 0 -0 0 -0 0 0 0 0 0 0 0
0 0 0 0 0 0 0 0 0 0 0 0 0 0 0 0 0 0 0 0 0 -0 0 -0 -0 0 0 0 0 0 0 0
0 0 0 0 0 0 0 0 0 0 0 0 0 0 0 0 0 0 0 0 -0 -0 0 -0 0 0 0 0 0 0 0 0
0 0 0 0 0 0 0 0 0 0 0 0 0 0 0 0 0 0 0 0 0 0 -0 -0 0 0 0 0 0 0 0 0
0 0 0 0 0 0 0 0 0 0 0 0 0 0 0 0 0 0 0 0 0 0 0 0 0 0 0 0 0 0 0 0
0 -0 0 0 0 0 0 0 0 0 0 0 0 0 0 0 0 0 0 0 -0 0 0 0 0 0 0 0 0 0 0 0
0 -0 0 0 0 0 0 0 0 0 0 0 0 0 0 0 0 0 0 0 -0 0 0 0 0 0 0 0 0 0 0 0
0 0 0 0 0 0 0 -0 0 0 0 0 0 0 0 0 0 0 0 0 0 0 0 0 0 0 0 0 0 0 0 0
-0 -0 -0 0 -0 -0 -0 -0 -0 0 0 0 0 0 0 0 0 0 0 0 0 0 0 0 0 0 0 0 0 0 0 0
-0 -0 -0 -0 -0 -0 -0 -0 -0 0 0 0 0 0 0 0 0 0 0 0 0 0 0 0 0 0 0 0 0 0 0 0
Wind_Speed_500mb
56 44 36 30 43 45 41 32 22 23 29 30 26 28 33 32 28 35 30 22 21 20 21 22 25 30 28 30 38 43 45 48
55 42 38 44 49 55 47 35 27 22 26 22 19 23 22 26 32 33 25 21 19 21 20 20 21 20 23 28 33 39 44 41
46 40 40 47 52 55 44 34 25 22 23 14 17 19 19 22 22 27 29 27 25 20 23 27 24 23 24 24 32 39 42 36
52 56 52 55 56 55 43 28 20 22 16 12 18 19 19 21 22 25 31 33 30 23 22 25 26 29 26 26 27 37 42 37
57 62 61 60 55 47 34 23 20 16 9 10 17 22 24 27 25 24 26 30 30 30 27 26 22 25 29 31 28 34 36 41
62 65 61 60 57 46 29 22 16 14 8 13 20 25 29 30 28 24 23 27 28 29 28 25 23 26 26 33 33 33 36 39
67 68 68 67 57 41 27 19 10 7 6 10 19 26 29 26 25 24 23 23 23 26 22 20 22 21 25 32 37 36 36 37
70 74 71 64 50 33 24 16 6 5 3 9 17 26 28 27 23 19 19 19 22 23 17 19 20 17 19 33 42 39 38 38
65 74 67 58 43 30 25 15 10 9 6 12 20 30 31 28 18 19 20 17 17 19 18 19 15 11 15 28 32 40 38 30
58 74 68 57 41 29 24 16 10 7 4 12 21 27 24 27 15 15 17 21 13 19 18 15 10 9 21 27 32 38 35 32
73 72 64 51 37 29 24 15 11 5 9 10 18 15 21 25 15 11 17 12 6 18 16 14 14 14 20 24 33 36 34 35
75 74 64 50 33 29 23 17 10 12 5 7 15 21 25 25 11 11 4 2 12 15 15 18 17 16 22 25 34 37 33 35
81 74 62 40 33 31 25 18 11 12 10 8 17 22 19 14 7 6 4 5 11 19 22 22 22 20 19 20 31 30 31 35
72 66 49 39 33 30 27 20 10 6 9 6 16 14 16 13 8 7 8 10 16 27 26 29 24 23 20 19 22 31 25 37
68 64 53 41 40 33 28 17 14 10 12 10 12 12 13 14 11 11 8 11 21 33 31 31 23 25 20 17 22 28 22 33
62 62 51 42 40 34 24 17 14 19 18 9 4 12 8 13 16 20 4 11 23 33 31 29 20 23 17 16 21 23 23 33
66 58 48 41 38 32 22 19 17 22 18 7 5 11 12 11 16 18 10 18 22 33 28 30 19 22 18 16 20 20 26 32
63 57 50 37 33 28 23 20 22 19 10 11 7 5 13 12 13 14 17 16 18 25 26 25 25 24 22 18 17 20 20 32
66 59 49 37 35 33 31 24 26 23 12 15 8 1 9 10 12 11 11 14 19 22 24 26 30 32 24 21 25 28 30 29
64 58 49 45 44 36 34 30 23 20 17 18 12 5 4 7 14 11 9 14 22 23 31 33 35 34 29 27 31 29 32 34
Wind_Direction_500mb
199 213 214 217 215 218 217 228 238 274 300 303 303 290 285 285 290 297 293 290 296 276 272 255 253 255 256 241 228 222 222 224
206 206 209 213 217 208 205 215 249 280 305 306 317 309 301 296 288 290 276 275 287 277 265 261 255 255 249 240 233 222 218 222
207 207 209 220 216 206 213 232 260 298 307 306 325 344 318 311 292 279 278 283 273 283 271 261 262 263 256 243 230 222 217 216
205 204 210 211 208 215 221 234 261 301 323 324 324 322 320 315 304 283 276 278 274 276 282 268 259 267 253 241 225 216 219 216
217 217 219 224 219 216 220 237 264 308 328 319 336 337 325 314 309 294 282 279 271 271 280 271 264 269 251 234 221 219 221 213
227 218 221 215 217 211 220 239 275 312 317 328 333 322 319 311 301 294 287 276 271 266 265 261 266 267 248 230 220 213 212 209
224 217 219 216 216 212 223 232 264 310 308 321 321 326 319 308 291 289 281 273 271 264 248 256 268 266 246 227 217 209 204 203
220 208 209 213 209 214 220 214 231 203 204 286 302 324 329 325 305 298 292 283 263 256 242 257 265 262 246 211 207 207 201 206
213 204 204 204 207 210 203 204 185 177 212 285 306 314 327 331 305 293 289 297 268 240 229 241 256 248 214 193 198 199 198 204
197 193 200 208 204 198 196 190 172 155 269 273 305 314 329 335 307 307 306 294 254 234 220 228 214 198 180 184 191 194 201 197
183 192 200 199 195 195 192 180 164 159 208 292 317 323 335 337 318 305 316 294 243 183 202 196 183 174 175 180 182 189 195 189
189 193 195 189 191 186 177 179 168 207 222 304 333 333 336 334 320 318 340 356 159 176 173 166 164 161 172 187 195 189 195 195
192 194 190 184 186 180 177 178 204 226 243 331 341 334 346 348 348 0 30 145 160 162 153 149 154 158 160 171 176 187 194 192
189 188 183 179 178 174 178 185 206 230 189 265 320 332 5 6 355 325 351 187 177 166 163 160 153 155 150 162 185 182 194 189
186 180 178 177 177 177 181 199 196 219 198 234 317 334 11 15 7 348 3 154 170 173 174 171 151 156 152 164 172 179 184 180
181 179 177 178 177 181 185 177 195 182 190 261 321 359 356 15 24 7 17 146 167 174 179 172 164 170 168 174 174 185 179 187
179 178 180 176 178 184 184 176 189 181 192 267 83 18 25 20 18 23 78 132 150 174 176 178 164 164 176 181 185 180 178 178
176 179 179 178 181 181 185 186 187 187 192 171 105 51 30 32 25 45 93 123 153 171 180 180 178 170 174 174 176 168 175 175
178 179 178 180 181 179 179 188 186 183 185 174 147 155 21 52 45 71 102 96 141 159 163 159 159 165 162 160 159 153 164 161
179 178 179 182 184 181 182 178 187 191 186 170 157 166 33 61 53 63 116 103 126 136 152 149 153 160 161 154 154 155 156 158
Wind_Speed_850mb
56 44 36 30 43 45 41 32 22 23 29 30 26 28 33 32 28 35 30 22 21 20 21 22 25 30 28 30 38 43 45 48
55 42 38 44 49 55 47 35 27 22 26 22 19 23 22 26 32 33 25 21 19 21 20 20 21 20 23 28 33 39 44 41
46 40 40 47 52 55 44 34 25 22 23 14 17 19 19 22 22 27 29 27 25 20 23 27 24 23 24 24 32 39 42 36
52 56 52 55 56 55 43 28 20 22 16 12 18 19 19 21 22 25 31 33 30 23 22 25 26 29 26 26 27 37 42 37
57 62 61 60 55 47 34 23 20 16 9 10 17 22 24 27 25 24 26 30 30 30 27 26 22 25 29 31 28 34 36 41
62 65 61 60 57 46 29 22 16 14 8 13 20 25 29 30 28 24 23 27 28 29 28 25 23 26 26 33 33 33 36 39
67 68 68 67 57 41 27 19 10 7 6 10 19 26 29 26 25 24 23 23 23 26 22 20 22 21 25 32 37 36 36 37
70 74 71 64 50 33 24 16 6 5 3 9 17 26 28 27 23 19 19 19 22 23 17 19 20 17 19 33 42 39 38 38
65 74 67 58 43 30 25 15 10 9 6 12 20 30 31 28 18 19 20 17 17 19 18 19 15 11 15 28 32 40 38 30
58 74 68 57 41 29 24 16 10 7 4 12 21 27 24 27 15 15 17 21 13 19 18 15 10 9 21 27 32 38 35 32
73 72 64 51 37 29 24 15 11 5 9 10 18 15 21 25 15 11 17 12 6 18 16 14 14 14 20 24 33 36 34 35
75 74 64 50 33 29 23 17 10 12 5 7 15 21 25 25 11 11 4 2 12 15 15 18 17 16 22 25 34 37 33 35
81 74 62 40 33 31 25 18 11 12 10 8 17 22 19 14 7 6 4 5 11 19 22 22 22 20 19 20 31 30 31 35
72 66 49 39 33 30 27 20 10 6 9 6 16 14 16 13 8 7 8 10 16 27 26 29 24 23 20 19 22 31 25 37
68 64 53 41 40 33 28 17 14 10 12 10 12 12 13 14 11 11 8 11 21 33 31 31 23 25 20 17 22 28 22 33
62 62 51 42 40 34 24 17 14 19 18 9 4 12 8 13 16 20 4 11 23 33 31 29 20 23 17 16 21 23 23 33
66 58 48 41 38 32 22 19 17 22 18 7 5 11 12 11 16 18 10 18 22 33 28 30 19 22 18 16 20 20 26 32
63 57 50 37 33 28 23 20 22 19 10 11 7 5 13 12 13 14 17 16 18 25 26 25 25 24 22 18 17 20 20 32
66 59 49 37 35 33 31 24 26 23 12 15 8 1 9 10 12 11 11 14 19 22 24 26 30 32 24 21 25 28 30 29
64 58 49 45 44 36 34 30 23 20 17 18 12 5 4 7 14 11 9 14 22 23 31 33 35 34 29 27 31 29 32 34
Wind_Direction_850mb
199 213 214 217 215 218 217 228 238 274 300 303 303 290 285 285 290 297 293 290 296 276 272 255 253 255 256 241 228 222 222 224
206 206 209 213 217 208 205 215 249 280 305 306 317 309 301 296 288 290 276 275 287 277 265 261 255 255 249 240 233 222 218 222
207 207 209 220 216 206 213 232 260 298 307 306 325 344 318 311 292 279 278 283 273 283 271 261 262 263 256 243 230 222 217 216
205 204 210 211 208 215 221 234 261 301 323 324 324 322 320 315 304 283 276 278 274 276 282 268 259 267 253 241 225 216 219 216
217 217 219 224 219 216 220 237 264 308 328 319 336 337 325 314 309 294 282 279 271 271 280 271 264 269 251 234 221 219 221 213
227 218 221 215 217 211 220 239 275 312 317 328 333 322 319 311 301 294 287 276 271 266 265 261 266 267 248 230 220 213 212 209
224 217 219 216 216 212 223 232 264 310 308 321 321 326 319 308 291 289 281 273 271 264 248 256 268 266 246 227 217 209 204 203
220 208 209 213 209 214 220 214 231 203 204 286 302 324 329 325 305 298 292 283 263 256 242 257 265 262 246 211 207 207 201 206
213 204 204 204 207 210 203 204 185 177 212 285 306 314 327 331 305 293 289 297 268 240 229 241 256 248 214 193 198 199 198 204
197 193 200 208 204 198 196 190 172 155 269 273 305 314 329 335 307 307 306 294 254 234 220 228 214 198 180 184 191 194 201 197
183 192 200 199 195 195 192 180 164 159 208 292 317 323 335 337 318 305 316 294 243 183 202 196 183 174 175 180 182 189 195 189
189 193 195 189 191 186 177 179 168 207 222 304 333 333 336 334 320 318 340 356 159 176 173 166 164 161 172 187 195 189 195 195
192 194 190 184 186 180 177 178 204 226 243 331 341 334 346 348 348 0 30 145 160 162 153 149 154 158 160 171 176 187 194 192
189 188 183 179 178 174 178 185 206 230 189 265 320 332 5 6 355 325 351 187 177 166 163 160 153 155 150 162 185 182 194 189
186 180 178 177 177 177 181 199 196 219 198 234 317 334 11 15 7 348 3 154 170 173 174 171 151 156 152 164 172 179 184 180
181 179 177 178 177 181 185 177 195 182 190 261 321 359 356 15 24 7 17 146 167 174 179 172 164 170 168 174 174 185 179 187
179 178 180 176 178 184 184 176 189 181 192 267 83 18 25 20 18 23 78 132 150 174 176 178 164 164 176 181 185 180 178 178
176 179 179 178 181 181 185 186 187 187 192 171 105 51 30 32 25 45 93 123 153 171 180 180 178 170 174 174 176 168 175 175
178 179 178 180 181 179 179 188 186 183 185 174 147 155 21 52 45 71 102 96 141 159 163 159 159 165 162 160 159 153 164 161
179 178 179 182 184 181 182 178 187 191 186 170 157 166 33 61 53 63 116 103 126 136 152 149 153 160 161 154 154 155 156 158